User: anonymous
Location: Unspecified
(0.0000°N, 0.0000°E)
Time: 12:00:14
(UTC+02:00)
Language:

CZ-4 R/B - Orbit

View from above orbital plane
View from above orbital plane
View from above satellite
View from above satellite

Ground track
Ground track

The orbit data is extracted from the following two-line orbital elements,

1 28059U 03049C   14202.66803795 -.00000028  00000-0  55473-5 0  1085
2 28059 098.6936 042.5649 0049677 237.0931 173.3371 14.52133822569595
Epoch (UTC): 21 July 2014 16:01:58
Eccentricity: 0.0049677
inclination: 98.6936°
perigee height: 683 km
apogee height: 754 km
right ascension of ascending node: 42.5649°
argument of perigee: 237.0931°
revolutions per day: 14.52133822
mean anomaly at epoch: 173.3371°
orbit number at epoch: 56959

The dashed part of the orbit path shows where the satellite is in the earth's shadow,  

DLR